Flag for Canada Weather past 2 weeks in Saguenay, Quebec, Canada

Now
58 °F

Refreshingly cool.


Feels Like: 55 °F
Forecast: 39 / 56 °F
Wind: 13 mph from Northeast

Location: Jonquiere Airport

Current Time: Apr 27, 2015 at 3:35:01 PM

Latest Report: Apr 27, 2015 at 3:00 PM


Visibility: N/A

Pressure: 29.85 "Hg

Humidity: 48%

Dew point: 38 °F

Location of SaguenayLocation

Historic Weather in Saguenay — Graph

°F

Saguenay temperature yesterday

Maximum temperature yesterday: 50 °F (at 3:00 PM)
Minimum temperature yesterday: 38 °F (at 3:00 AM)
Average temperature yesterday: 43 °F

Past Weeks' High & Low Weather Summary

 TemperatureHumidityPressure
High69 °F (Apr 13, 3:00 PM)100% (Apr 18, 9:00 PM)30.50 "Hg (Apr 18, 9:00 PM)
Low24 °F (Apr 16, 5:00 AM)18% (Apr 16, 6:00 PM)29.46 "Hg (Apr 23, 12:00 PM)
Average41 °F65%29.90 "Hg
* Reported Apr 12 2:00 PM — Apr 27 2:00 PM, Saguenay, Weather by CustomWeather, © 2015

Note: Actual official high and low records may vary slightly from our data, if they occured in-between our weather recording intervals... More about our weather records

Advertising

Saguenay weather history for previous 24 hours

 ConditionsComfort  
Time TempWeatherWind HumidityBarometerVisibility
2:00 PM
Mon, Apr 27
55 °FCool.13 mph55%29.86 "HgN/A
1:00 PM55 °FCool.14 mph57%29.85 "HgN/A
12:00 PM54 °FCool.14 mph56%29.85 "HgN/A
11:00 AM54 °FCool.8 mph62%29.84 "HgN/A
10:00 AM49 °FCool.3 mph75%29.84 "HgN/A
9:00 AM46 °FCool.5 mph80%29.82 "HgN/A
8:00 AM43 °FQuite cool.5 mph82%29.81 "HgN/A
7:00 AM42 °FQuite cool.7 mph85%29.79 "HgN/A
6:00 AM40 °FQuite cool.9 mph80%29.77 "HgN/A
5:00 AM40 °FQuite cool.6 mph81%29.75 "HgN/A
4:00 AM40 °FQuite cool.6 mph81%29.74 "HgN/A
3:00 AM40 °FQuite cool.3 mph88%29.74 "HgN/A
2:00 AM40 °FChilly.2 mph90%29.74 "HgN/A
1:00 AM40 °FQuite cool.5 mph91%29.72 "HgN/A
12:00 AM41 °FQuite cool.6 mph93%29.72 "HgN/A
11:00 PM
Sun, Apr 26
42 °FQuite cool.3 mph89%29.73 "HgN/A
10:00 PM42 °FQuite cool.6 mph85%29.73 "HgN/A
9:00 PM42 °FQuite cool.5 mph83%29.74 "HgN/A
8:00 PM43 °FQuite cool.3 mph81%29.76 "HgN/A
7:00 PM46 °FCool.3 mph75%29.75 "HgN/A
6:00 PM47 °FCool.6 mph74%29.75 "HgN/A
5:00 PM47 °FCool.5 mph71%29.74 "HgN/A
4:00 PM48 °FCool.5 mph71%29.73 "HgN/A
3:00 PM50 °FCool.5 mph59%29.72 "HgN/A
Weather by CustomWeather, © 2015

See weather overviewHow to use our weather pages